Location: Trani
(41.2830°N, 16.4170°E)
Time: 18:11:55
(UTC+02:00)

N. Korean satellite - Pass Details

Date: 09 August 2021
Orbit: 448 x 499 km, 97.3° (Epoch: 16 September)

Event Time Altitude Azimuth Distance (km) Brightness Sun altitude
Rises 05:24:52 0° 28° (NNE) 2,517 11.2 -6.4°
Reaches altitude 10° 05:27:23 10° 47° (NE) 1,624 10.7 -6.0°
Maximum altitude 05:29:55 19° 94° (E) 1,164 9.4 -5.6°
Drops below altitude 10° 05:32:26 10° 141° (SE) 1,595 9.4 -5.1°
Sets 05:34:52 0° 160° (SSE) 2,454 10.1 -4.7°
